FW4729 Weather Reports


time (UTC)temp
F
wind
direction
speed
knots
gust
knots
rain 1hr
in
rain 24hr
in
rain mn
in
humidity
%
barometer
mb
20260506223010 69 265 2.6 8.7 0.00 0.00 0.00 67 1018.7
20260506221508 69 266 0.9 7.0 0.00 0.00 0.00 67 1019.1
20260506220006 69 252 0.9 6.1 0.00 0.00 0.00 66 1019.4
20260506214504 69 263 1.7 11.3 0.00 0.00 0.00 64 1019.4
20260506213106 68 285 2.6 9.6 0.00 0.00 0.00 65 1019.5
20260506211559 68 272 1.7 7.8 0.00 0.00 0.00 66 1019.6
20260506210100 67 291 2.6 9.6 0.00 0.00 0.00 67 1019.8
20260506204557 67 262 2.6 12.2 0.00 0.00 0.00 68 1019.9
20260506203114 67 279 2.6 13.0 0.00 0.00 0.00 69 1019.8
20260506201552 66 319 3.5 11.3 0.00 0.00 0.00 69 1020.0
20260506200056 66 270 5.2 11.3 0.00 0.00 0.00 68 1020.1
20260506194550 67 312 4.3 13.0 0.00 0.00 0.00 67 1019.9
20260506193051 68 296 2.6 8.7 0.00 0.00 0.00 64 1020.0
20260506191547 68 345 3.5 10.4 0.00 0.00 0.00 65 1020.1
20260506190048 66 309 3.5 10.4 0.00 0.00 0.00 67 1020.1
20260506184546 66 267 2.6 7.8 0.00 0.00 0.00 67 1020.3
20260506183044 65 292 3.5 9.6 0.00 0.00 0.00 67 1020.3
20260506181548 66 294 4.3 9.6 0.00 0.00 0.00 67 1020.6
20260506180039 66 312 1.7 8.7 0.00 0.00 0.00 68 1020.4
20260506174539 66 285 2.6 7.0 0.00 0.00 0.00 67 1020.4
20260506173044 66 276 0.9 7.0 0.00 0.00 0.00 68 1020.5
20260506171536 65 281 0.0 4.3 0.00 0.00 0.00 69 1020.5
20260506170043 65 293 0.0 4.3 0.00 0.00 0.00 69 1020.4
20260506164546 65 304 0.0 3.5 0.00 0.00 0.00 69 1020.4
20260506163029 63 307 0.0 4.3 0.00 0.00 0.00 71 1020.4
20260506161525 61 304 0.0 0.9 0.00 0.00 0.00 75 1020.5
20260506160023 61 304 0.0 2.6 0.00 0.00 0.00 76 1020.7
20260506154520 59 304 0.0 3.5 0.00 0.00 0.00 78 1020.8
20260506153016 57 304 0.0 2.6 0.00 0.00 0.00 83 1020.9
20260506151514 55 304 0.0 0.0 0.00 0.00 0.00 88 1020.9
20260506150009 53 304 0.0 2.6 0.00 0.00 0.00 89 1021.0
20260506144511 51 304 0.0 0.0 0.00 0.00 0.00 90 1020.9
20260506143004 49 304 0.0 0.0 0.00 0.00 0.00 89 1021.0
20260506141508 47 304 0.0 0.0 0.00 0.00 0.00 89 1020.8
20260506140002 46 304 0.0 0.0 0.00 0.00 0.00 89 1020.5
20260506134601 45 304 0.0 0.0 0.00 0.00 0.00 89 1020.5
20260506134500 45 304 0.0 0.0 0.00 0.00 0.00 88 1020.6
20260506133114 45 304 0.0 0.0 0.00 0.00 0.00 88 1020.4
20260506131616 45 304 0.0 0.0 0.00 0.00 0.00 88 1020.0
20260506130059 45 304 0.0 0.0 0.00 0.00 0.00 88 1019.8
20260506124558 45 304 0.0 0.0 0.00 0.00 0.00 88 1019.8
20260506123058 45 304 0.0 0.0 0.00 0.00 0.00 88 1020.0
20260506121559 45 304 0.0 0.0 0.00 0.00 0.00 88 1020.1
20260506120103 45 304 0.0 0.0 0.00 0.00 0.00 88 1020.1
20260506114554 45 304 0.0 0.0 0.00 0.00 0.00 88 1020.2
20260506113053 45 304 0.0 0.0 0.00 0.00 0.00 87 1020.1
20260506111552 45 304 0.0 0.0 0.00 0.00 0.00 88 1020.1
20260506110101 46 304 0.0 0.0 0.00 0.00 0.00 87 1020.0
20260506104602 46 304 0.0 0.0 0.00 0.00 0.00 87 1020.0
20260506103049 46 304 0.0 0.0 0.00 0.00 0.00 87 1020.0
20260506101546 47 304 0.0 0.0 0.00 0.00 0.00 87 1019.9
20260506100053 47 304 0.0 0.0 0.00 0.00 0.00 87 1020.1
20260506094550 47 304 0.0 0.0 0.00 0.00 0.00 87 1019.9
20260506093042 47 304 0.0 0.0 0.00 0.00 0.00 86 1020.0
20260506091540 48 304 0.0 0.0 0.00 0.00 0.00 86 1020.0
20260506090040 48 304 0.0 0.0 0.00 0.00 0.00 86 1020.2
20260506084610 49 304 0.0 0.0 0.00 0.00 0.00 86 1020.4
20260506083037 49 304 0.0 0.0 0.00 0.00 0.00 86 1020.2
20260506081545 49 304 0.0 0.0 0.00 0.00 0.00 86 1020.5
20260506073027 51 304 0.0 0.0 0.00 0.00 0.00 85 1020.1
20260506071526 51 304 0.0 0.0 0.00 0.00 0.00 84 1020.1
20260506061519 52 304 0.0 0.0 0.00 0.00 0.00 83 1019.7
20260506044518 55 304 0.0 1.7 0.00 0.00 0.00 81 1019.2
20260506043013 55 303 0.0 1.7 0.00 0.00 0.00 80 1019.1
20260506041511 55 303 0.0 3.5 0.00 0.00 0.00 80 1019.0
20260506040010 56 302 0.0 1.7 0.00 0.00 0.00 78 1018.8
20260506034509 56 302 0.0 2.6 0.00 0.00 0.00 78 1018.5
20260506033007 56 302 0.0 2.6 0.00 0.00 0.00 77 1018.3
20260506031505 57 302 0.0 2.6 0.00 0.00 0.00 76 1018.1
20260506030005 57 302 0.0 0.9 0.00 0.00 0.00 75 1017.8
20260506024504 58 303 0.0 3.5 0.00 0.00 0.00 75 1017.4
20260506023004 58 305 0.9 7.0 0.00 0.00 0.00 75 1017.4
20260506021503 59 306 2.6 7.0 0.00 0.00 0.00 75 1017.3
20260506020002 59 309 3.5 7.8 0.00 0.00 0.00 75 1017.0
20260506014501 60 315 3.5 11.3 0.00 0.00 0.00 74 1016.9
20260506013003 61 317 1.7 10.4 0.00 0.00 0.00 74 1017.0
20260506011617 61 308 3.5 11.3 0.00 0.00 0.00 74 1016.9
20260506004600 63 315 0.9 10.4 0.00 0.00 0.00 73 1016.9
20260506003059 63 350 3.5 8.7 0.00 0.00 0.00 72 1016.9
20260506001559 63 280 0.9 9.6 0.00 0.00 0.00 72 1016.7
20260506000100 63 305 2.6 9.6 0.00 0.00 0.00 72 1016.8
20260505234557 63 327 4.3 11.3 0.00 0.00 0.00 73 1016.9
20260505233104 63 280 2.6 10.4 0.00 0.00 0.00 73 1016.8
20260505231604 63 300 3.5 11.3 0.00 0.00 0.00 71 1016.9
20260505230048 64 271 4.3 10.4 0.00 0.00 0.00 68 1016.9
20260505224545 65 315 2.6 9.6 0.00 0.00 0.00 69 1016.9